CAPE
259 186 140 53 0 0 0 0 0 0 0 0 0 0 3 12 0 0 0 3 12 20 15 11 8 7 8 5 2 2 3 4 4 5 3 2 1 0 0 0 0 0 0
267 153 115 102 1 0 0 0 0 6 0 0 0 0 0 5 0 0 0 0 10 19 21 11 6 7 6 5 4 4 3 4 4 4 5 3 0 0 0 0 0 0 0
183 57 68 110 70 8 8 0 0 13 3 0 0 0 0 0 2 0 0 0 0 6 16 24 7 4 4 3 3 4 5 1 1 10 6 5 0 0 0 0 0 0 0
108 51 61 73 99 69 83 36 49 4 0 0 0 0 0 0 12 0 0 0 0 0 4 11 8 13 7 5 6 2 4 8 1 9 7 5 1 0 0 0 0 0 0
35 76 71 100 149 110 107 103 22 0 0 0 0 0 0 0 1 0 0 0 0 0 0 0 0 9 6 1 4 5 7 4 5 3 10 5 2 3 0 0 0 0 0
1 6 25 98 33 66 103 42 25 0 0 0 0 0 0 0 0 2 0 4 0 0 0 0 0 0 0 1 1 2 3 4 1 0 9 9 3 0 0 0 0 0 0
0 0 17 12 3 37 57 68 19 10 0 0 0 0 0 0 0 0 0 0 0 0 0 0 0 0 0 0 0 2 0 3 2 1 9 8 2 0 0 0 0 0 0
0 0 1 22 16 0 12 31 19 22 23 14 7 0 0 0 0 0 0 0 0 0 0 0 0 0 0 0 0 0 0 1 5 5 2 15 3 0 0 0 0 0 0
0 0 7 5 18 17 39 44 58 51 50 26 8 1 0 0 0 0 0 0 0 0 0 0 0 0 0 0 0 0 0 0 5 11 12 20 10 0 0 0 0 0 0
0 0 12 13 8 24 57 62 99 121 66 23 1 0 1 8 13 0 0 0 0 0 0 0 0 0 0 0 0 0 0 0 0 0 30 36 21 6 0 1 1 3 3
0 0 0 6 22 51 95 92 117 113 78 28 10 4 0 0 7 0 0 0 0 0 0 0 0 0 0 0 0 0 0 0 0 0 0 34 62 38 28 15 11 19 20
4 0 0 20 27 45 75 93 116 99 111 62 15 11 0 0 0 0 0 0 0 0 0 0 0 0 0 0 0 0 0 0 0 0 0 0 40 77 63 86 110 48 34
2 0 0 16 11 28 54 85 128 95 80 105 117 97 36 6 23 0 0 0 0 0 0 0 0 0 0 0 0 0 0 0 0 0 0 0 0 11 61 94 111 115 117
5 10 4 7 24 37 67 68 48 88 109 106 110 83 77 75 61 18 0 0 0 0 0 0 0 0 0 0 0 0 0 0 0 0 0 0 0 0 0 2 47 85 105
17 23 10 14 18 26 20 34 43 50 72 57 58 77 36 66 76 56 2 0 0 0 0 0 0 0 0 0 0 0 0 0 0 0 0 0 0 0 0 0 0 5 27
2 2 4 2 0 1 4 36 33 36 53 44 47 40 63 39 86 79 56 38 3 0 0 0 0 0 0 0 0 0 0 0 0 0 0 0 0 0 0 0 0 0 0
0 18 23 15 10 4 11 14 14 16 15 17 16 17 4 38 55 56 61 47 5 0 0 0 0 0 0 0 0 0 0 0 0 0 0 0 0 0 0 0 0 0 0
6 2 4 12 3 0 2 5 12 24 31 22 13 36 28 29 40 42 41 32 2 0 0 0 0 0 0 0 0 0 0 0 0 0 0 0 0 0 0 0 0 0 0
14 13 14 5 1 2 8 10 4 9 12 25 44 53 45 34 24 8 0 1 1 1 0 0 0 0 0 0 0 0 0 0 0 0 0 0 0 0 0 0 0 0 0
7 11 16 19 17 22 24 22 25 22 39 55 14 1 1 1 1 0 1 1 1 1 0 0 0 0 1 0 0 0 0 0 0 1 0 0 0 0 0 0 0 0 0
8 13 18 27 39 39 3 0 2 12 0 0 1 1 3 3 3 1 0 1 0 0 0 0 0 0 0 0 0 0 0 0 0 0 0 0 0 0 0 0 1 1 0
50 26 10 0 0 0 0 0 0 0 0 1 1 2 1 2 1 1 0 1 0 0 0 0 0 0 0 0 0 0 0 0 0 1 0 0 1 0 1 0 0 0 1
0 0 0 1 1 1 0 0 0 0 1 1 1 1 2 2 1 0 0 0 1 1 0 0 0 0 1 0 0 0 0 0 0 4 1 0 0 0 0 2 4 5 4
0 1 1 1 1 3 2 1 0 0 0 1 1 1 1 1 0 0 0 0 0 0 1 2 1 2 3 6 6 10 5 3 1 0 1 0 0 0 0 0 0 8 15
1 1 1 1 1 2 2 1 0 0 0 1 1 2 1 1 1 0 0 0 0 1 0 0 0 0 0 0 1 0 2 0 0 5 1 5 11 6 6 4 0 15 27
1 1 1 1 1 1 2 0 0 0 0 1 0 0 0 0 1 3 0 0 0 0 2 0 1 1 4 7 0 0 1 3 8 5 3 2 5 10 5 7 0 0 2
CIN
-5 -13 -3 -6 0 0 0 0 0 0 0 0 0 0 -7 -36 0 0 0 -13 -5 -0 0 0 0 -0 -0 0 -0 0 -0 0 -0 -0 0 -0 -0 0 0 0 0 0 0
-4 -12 -18 -3 -4 0 0 0 0 -8 0 0 0 0 -1 -19 0 0 0 0 -10 -3 -0 -0 0 0 0 0 -0 -0 0 0 -0 -0 0 -0 0 0 0 0 0 0 0
-16 -34 -22 -14 -2 -48 -12 0 0 -11 -11 0 0 0 0 0 -30 0 0 0 -0 -13 -5 -0 0 -0 -0 0 0 0 0 0 -0 -0 0 -0 0 0 0 0 0 0 0
-27 -31 -25 -22 -13 -12 -10 -23 -14 -16 0 0 0 0 0 0 -16 0 0 0 0 0 -7 -6 -1 -0 0 0 0 0 -0 0 0 -0 0 0 0 0 0 0 0 0 0
-71 -50 -30 -44 -17 -17 -15 -17 -26 0 0 0 0 0 0 0 -43 -2 0 0 0 0 0 0 -1 -7 -1 -0 -0 0 0 0 -0 0 -0 0 0 0 0 0 0 0 0
-31 -91 -99 -45 -55 -43 -26 -30 -43 0 0 0 0 0 0 0 0 -107 0 -20 0 0 0 0 0 0 0 -0 -0 0 0 0 -0 0 0 0 -0 0 0 0 0 0 0
0 0 -109 -93 -78 -71 -41 -28 -74 -90 0 0 -2 0 0 0 0 0 0 0 -0 0 0 0 0 0 0 0 0 0 0 0 0 -0 0 0 0 0 0 0 0 0 0
0 0 -27 -114 -82 0 -32 -73 -91 -46 -26 -34 -46 0 0 0 0 0 0 0 0 0 0 0 0 0 0 0 0 0 0 0 0 0 -0 0 -0 0 0 0 0 0 0
0 0 -74 -89 -82 -91 -44 -91 -75 -45 -37 -96 -104 -26 0 0 0 0 0 0 0 0 0 0 0 0 0 0 0 0 0 0 0 0 0 0 0 0 0 0 0 0 0
0 0 -41 -61 -75 -51 -49 -58 -38 -33 -56 -131 -34 0 -65 -92 -38 0 0 0 0 0 0 0 0 0 0 0 0 0 0 0 0 0 -14 -15 0 0 0 0 -0 -0 -0
0 0 -11 -21 -21 -14 -31 -32 -31 -47 -66 -106 -128 -120 0 0 -115 0 0 0 0 0 0 0 0 0 0 0 0 0 0 0 0 0 0 -8 -0 -0 -37 -1 -1 -0 0
-1 -0 0 -27 -23 -23 -26 -34 -22 -87 -58 -42 -118 -119 0 -14 0 0 0 0 0 0 0 0 0 0 0 0 0 0 0 0 0 0 0 0 -0 0 0 0 0 -7 0
-0 0 0 -4 -29 -23 -10 -23 -66 -64 -48 -51 -40 -36 -61 -102 -65 0 0 0 0 0 0 0 0 0 0 0 0 0 0 0 0 0 0 0 0 -8 -1 -0 0 0 0
-2 -2 -1 -5 -10 -7 -19 -68 -18 -41 -63 -72 -70 -69 -49 -37 -39 -37 0 0 0 0 0 0 0 0 0 0 0 0 0 0 0 0 0 0 0 0 -3 -3 -3 -1 -0
-0 -2 -2 -10 -40 -45 -63 -52 -44 -46 -47 -64 -74 -70 -51 -36 -40 -27 -18 0 0 -1 0 0 0 0 0 0 0 0 0 0 0 0 0 0 0 0 0 0 0 -8 -8
-11 -26 -42 -32 0 -35 -38 -67 -76 -74 -43 -42 -49 -54 -41 -35 -31 -37 -31 -26 -17 0 -1 0 0 0 0 0 0 0 0 0 0 0 0 0 0 0 0 0 0 0 0
0 -10 -39 -45 -46 -43 -50 -77 -73 -64 -42 -36 -35 -24 -19 -31 -27 -30 -35 -36 -44 0 0 0 0 0 0 0 0 0 0 0 0 0 0 0 0 0 0 0 0 0 0
-13 -13 -25 -39 -44 -3 -56 -53 -46 -16 -22 -32 -40 -14 -25 -27 -22 -23 -20 -15 -28 0 0 -3 0 0 0 0 0 0 0 0 0 0 0 0 0 0 0 0 0 0 0
-9 -5 -10 -18 -1 -2 -11 -14 -15 -18 -20 -16 -12 -14 -18 -29 -17 -28 -70 -32 -17 -19 0 0 0 0 0 0 0 0 0 0 0 0 0 0 0 0 0 0 0 0 0
-9 -49 -79 -67 -14 -10 -8 -8 -5 -10 -14 -18 -13 0 0 0 0 0 0 0 0 0 0 0 0 0 0 0 0 0 0 0 0 0 0 0 0 0 0 0 0 0 0
-84 -80 -53 -35 -19 -4 -4 0 -6 -56 0 0 0 0 0 0 0 0 0 0 0 0 0 0 0 0 0 0 0 0 0 0 0 0 0 0 0 0 0 -0 0 0 0
-80 -66 -6 0 0 0 0 0 0 0 0 0 0 0 0 0 0 0 0 0 0 0 0 0 0 0 0 0 0 0 0 0 0 0 0 0 0 0 0 0 0 0 -1
0 0 0 0 0 0 0 0 0 0 0 0 0 0 0 0 0 0 0 0 0 0 0 0 0 0 0 0 0 0 0 0 0 0 0 0 -0 0 -0 0 0 0 -0
0 0 0 0 0 0 0 0 -0 -0 -0 0 -0 0 0 0 0 0 0 0 0 0 0 0 0 0 0 0 0 0 0 0 0 0 0 0 0 0 0 0 -0 -3 -1
0 0 0 0 0 0 0 0 0 0 0 0 0 0 0 0 0 -0 0 0 -0 -0 0 0 0 0 0 0 0 0 -0 -0 -1 -0 0 0 -0 0 0 -1 0 -1 -3
0 0 0 -0 0 0 0 0 0 0 -0 -0 -0 0 0 0 0 0 0 0 0 0 -1 -0 -6 -5 -4 -2 0 0 -0 0 0 -1 0 -0 0 0 0 -3 0 0 -0
Wind_Speed
11 12 11 11 9 9 9 9 8 7 8 6 5 6 4 11 12 8 5 12 12 14 14 15 14 12 12 13 13 12 12 12 12 12 12 12 11 10 10 9 9 9 9
10 11 12 11 10 10 9 9 8 7 5 6 6 6 4 6 12 12 8 6 12 12 13 13 14 13 13 13 13 13 13 12 12 11 11 11 11 11 10 9 9 8 8
11 13 11 9 9 10 10 8 7 5 5 6 6 5 4 6 10 13 11 8 6 9 11 12 13 14 13 13 14 13 13 11 10 12 12 12 10 11 9 8 8 8 7
12 11 11 11 11 11 9 9 6 5 5 5 4 4 4 4 6 12 11 10 8 7 8 12 13 15 15 14 14 14 13 13 12 13 14 13 13 12 11 11 11 10 9
3 7 10 7 11 11 9 7 5 6 5 4 5 4 3 4 5 4 10 12 12 10 8 11 11 12 13 15 15 14 15 15 15 15 15 15 15 15 13 12 12 11 10
8 5 6 4 7 7 8 7 7 5 5 5 8 5 4 3 4 3 4 7 11 9 10 10 9 8 13 15 17 18 19 18 18 18 19 18 17 16 15 14 14 12 12
12 6 6 5 4 9 1 7 5 6 3 4 4 4 2 2 4 3 4 3 5 6 7 7 8 7 8 16 18 21 20 20 20 21 21 21 20 18 18 17 16 14 14
15 9 8 6 6 5 7 6 6 3 3 4 4 5 3 1 3 4 2 4 5 4 5 6 11 11 10 9 13 21 22 23 23 23 23 22 22 21 20 19 19 18 17
15 9 5 6 6 7 3 5 6 7 3 2 2 4 3 5 4 3 7 4 5 4 5 6 7 8 11 8 14 18 22 21 24 25 25 23 24 24 24 23 22 21 20
15 10 7 8 5 4 5 5 5 4 5 4 1 3 0 0 1 3 2 5 5 6 7 6 8 10 10 8 14 18 21 24 25 25 25 26 26 26 26 26 25 23 22
15 11 8 9 9 8 7 6 3 5 5 6 5 2 2 1 2 2 3 4 6 7 7 8 8 5 9 10 10 11 23 24 26 27 27 28 29 29 28 28 29 28 27
12 10 10 7 7 5 7 9 9 6 5 5 5 4 4 4 4 4 4 5 5 5 9 8 8 11 11 9 13 19 20 26 27 29 29 29 30 31 31 31 31 31 31
9 12 14 10 7 9 12 8 4 7 6 5 5 4 3 4 3 4 4 4 5 4 4 4 6 8 9 10 13 19 18 18 26 31 31 31 31 31 31 31 31 31 33
12 15 15 12 12 15 9 9 13 8 8 7 7 6 5 5 4 4 5 4 5 6 5 7 5 10 10 11 14 18 16 18 19 25 28 28 31 31 31 29 28 28 28
9 12 14 11 7 9 7 8 6 8 6 7 7 7 7 8 5 5 5 7 9 8 9 7 7 12 11 12 15 15 15 18 21 22 20 25 28 30 30 30 29 28 27
13 13 14 13 11 10 11 8 8 7 6 5 5 7 8 7 7 7 8 9 9 12 12 10 10 11 7 10 13 14 16 17 17 21 24 26 29 31 30 28 28 26 25
13 14 15 15 15 14 11 10 10 9 10 9 8 10 13 12 9 8 8 8 8 9 14 12 11 10 8 9 11 11 12 13 12 20 23 27 28 28 27 23 21 19 17
12 12 14 15 15 14 12 12 10 10 11 10 11 11 13 8 10 11 9 11 10 11 12 18 11 8 8 9 10 12 11 11 13 18 20 25 26 24 17 8 7 5 5
11 12 12 13 13 12 12 10 10 10 11 11 11 10 10 7 8 4 5 8 10 8 7 9 10 7 3 3 2 2 3 3 2 7 6 5 6 7 7 6 7 7 7
8 8 7 6 7 7 9 10 12 11 11 11 5 12 11 10 8 6 6 7 7 6 6 7 8 6 2 3 3 3 3 2 3 1 3 3 4 3 3 4 4 8 9
11 11 10 10 9 7 3 4 4 3 9 11 12 13 13 14 20 14 5 6 6 4 4 4 3 3 3 3 3 3 3 3 3 3 2 2 2 1 2 6 7 9 12
8 7 3 10 11 9 10 9 11 10 11 11 11 10 8 9 11 17 17 19 14 5 5 2 2 3 3 2 2 2 2 2 3 5 4 3 3 3 3 5 10 13 16
13 13 13 13 13 12 16 19 19 12 12 11 9 9 9 7 9 7 12 9 15 14 9 4 4 4 3 5 5 4 3 2 2 2 3 4 3 6 6 8 14 17 20
14 13 14 13 13 12 18 21 21 14 14 13 11 10 11 10 13 7 7 7 6 7 8 6 6 5 4 5 6 6 7 6 5 4 4 6 3 7 6 7 16 21 19
15 14 13 14 14 13 17 17 16 13 13 13 11 12 11 10 17 16 6 5 5 7 4 4 3 4 6 7 5 4 5 6 6 4 5 6 5 7 6 7 8 16 18
17 13 16 14 19 15 19 18 13 8 11 8 9 9 18 12 15 15 9 7 7 7 6 6 6 5 4 5 4 4 6 8 7 3 6 8 7 7 7 5 6 7 8
Wind_Direction
145 143 148 151 160 153 159 159 175 172 171 160 179 140 219 109 125 130 142 144 144 153 156 150 147 152 157 154 152 156 155 157 148 150 144 148 136 133 126 127 125 122 115
149 149 152 157 167 152 162 171 178 164 157 158 132 167 175 120 132 139 141 149 155 161 163 166 158 171 176 175 173 172 174 176 166 167 163 161 162 153 149 150 147 139 138
158 157 156 157 173 156 165 180 185 138 138 145 158 161 152 150 145 141 149 151 157 168 173 183 172 185 192 191 192 192 185 190 186 187 185 178 178 170 168 170 167 161 158
163 161 158 166 172 163 172 181 162 136 151 147 153 164 151 148 139 152 160 153 163 173 193 192 184 196 203 205 204 204 206 199 202 195 192 194 194 192 194 189 184 181 175
197 158 166 177 164 168 169 164 139 139 136 159 150 160 160 162 150 184 157 161 169 177 183 195 191 197 203 213 217 217 212 211 210 210 203 206 207 204 205 203 200 195 189
175 136 124 170 146 149 159 143 137 141 149 169 169 144 167 167 158 183 200 156 178 173 182 182 190 201 203 211 222 222 221 217 217 216 213 210 215 213 211 207 210 206 205
157 155 139 128 138 133 272 131 119 143 158 180 113 108 148 144 157 193 178 197 177 185 163 171 182 196 205 210 221 229 229 228 223 222 219 217 216 218 214 210 213 212 219
159 164 146 143 112 104 130 124 123 148 152 160 142 124 145 3 272 230 233 205 206 175 192 199 188 197 206 201 214 224 229 232 229 225 224 222 221 218 218 216 216 217 219
156 140 135 137 131 114 165 152 158 165 149 108 151 148 158 209 159 180 222 215 208 204 205 201 213 209 207 196 204 214 217 228 235 229 225 223 221 220 219 220 221 223 225
149 138 123 138 149 135 166 160 171 160 132 149 28 254 1 23 163 112 193 219 213 222 219 225 219 219 221 217 199 206 209 216 225 231 229 225 222 223 223 224 225 229 229
152 151 147 161 191 199 162 144 182 187 142 166 178 160 211 204 184 183 202 206 218 225 214 212 225 227 222 226 236 219 211 212 219 224 228 229 226 223 223 225 227 227 230
154 154 169 192 194 175 163 180 197 193 191 180 183 198 167 165 203 188 221 233 197 229 223 221 215 222 225 225 224 227 207 207 213 222 224 227 231 228 224 226 228 229 228
158 175 183 197 182 197 204 193 172 184 204 193 191 209 215 212 198 185 180 232 219 245 255 238 227 230 231 229 233 229 226 206 213 219 221 225 228 233 233 230 231 234 233
175 178 192 196 205 203 186 177 220 198 197 203 199 204 227 238 230 209 190 188 261 241 212 231 224 233 238 237 237 229 229 221 218 222 222 223 227 231 234 235 235 233 233
162 174 190 195 187 185 187 201 205 216 200 206 213 218 229 239 230 219 209 211 219 249 248 232 233 228 231 241 243 243 239 237 214 214 223 227 230 231 231 234 234 236 239
177 171 181 190 197 197 208 202 220 236 220 215 207 213 226 230 230 227 225 224 222 235 254 248 259 259 226 229 239 236 238 233 226 225 227 229 234 234 232 230 231 228 230
185 183 187 194 204 210 209 211 221 221 229 227 223 221 230 229 233 235 235 237 231 227 250 261 260 267 256 228 236 231 239 242 244 239 235 237 238 240 234 231 232 230 229
189 185 184 195 201 203 205 211 217 224 225 229 232 230 231 231 236 241 242 239 231 233 247 266 267 259 250 232 236 239 239 241 247 245 240 240 240 235 231 191 181 187 198
184 196 189 197 204 207 210 211 219 228 234 238 238 239 247 261 265 269 246 243 238 248 258 271 275 279 280 30 307 323 315 312 303 58 80 107 151 178 169 166 175 213 228
190 199 207 201 211 219 226 229 231 232 238 242 290 51 50 45 30 1 4 18 354 319 291 277 278 290 359 8 344 315 298 340 324 341 69 99 113 117 146 177 200 235 238
196 202 206 212 212 222 338 330 317 43 67 76 68 73 73 73 67 53 74 27 360 11 358 341 4 2 5 1 5 330 315 338 341 352 323 342 1 323 222 250 245 255 259
188 195 15 63 65 54 16 58 90 80 73 74 78 82 86 75 74 68 62 58 64 7 56 23 20 16 23 338 339 337 326 358 319 21 348 333 333 292 275 239 239 242 252
78 73 71 71 68 59 53 69 78 79 77 77 81 77 73 54 50 43 63 49 52 47 46 27 52 21 16 358 340 336 349 330 314 350 347 278 241 263 256 262 264 259 256
82 81 77 77 78 64 66 73 82 86 77 69 65 62 63 45 34 33 47 51 58 46 42 39 37 18 11 359 2 351 330 305 290 272 254 277 256 271 260 254 254 254 266
89 85 84 84 80 72 70 76 83 82 82 75 66 60 53 46 37 28 33 22 64 39 66 39 29 352 341 336 343 332 350 342 322 330 8 321 347 329 310 284 271 281 279
94 90 84 75 77 74 67 73 82 91 93 89 77 70 51 46 39 37 42 38 35 357 13 2 6 358 340 17 4 357 4 360 349 317 35 356 342 1 318 337 342 325 326